Regional Weather Roundup
Issued by NWS Sioux Falls, SD

Home | Current Version | Previous Version | Text Only | Print | Product List | Glossary On
Versions: 1 2 3 4 5 6 7 8 9 10 11 12 13 14 15 16 17 18 19 20 21 22 23 24 25 26 27 28 29 30 31 32 33 34 35 36 37 38 39 40 41 42 43 44 45 46 47 48 49 50
000
ASUS43 KFSD 180302
RWRFSD

WEATHER ROUNDUP FOR SE SOUTH DAKOTA/SW MINNESOTA/NW IOWA
NATIONAL WEATHER SERVICE SIOUX FALLS SD
1000 PM CDT WED SEP 17 2014

NOTE: "FAIR" INDICATES FEW OR NO CLOUDS BELOW 12,000 FEET WITH NO
SIGNIFICANT WEATHER AND OR OBSTRUCTIONS TO VISIBILITY.


SDZ038>040-050-052>070-180400-
SOUTHEAST SOUTH DAKOTA

CITY           SKY/WX    TMP DP  RH WIND       PRES   REMARKS
CHAMBERLAIN    CLOUDY    64  49  59 NE8       29.97S
HURON          CLOUDY    60  53  77 NE3       29.98R
MADISON        FAIR      55  55 100 NE7       29.99S
MITCHELL       PTCLDY    60  55  83 E5        29.97R
SIOUX FALLS    MOCLDY    59  55  87 CALM      29.98R
WINNER         FAIR      65  57  75 E9        29.96S
YANKTON        CLEAR     64  55  72 N6        29.96R
$$

MNZ071-072-080-081-089-090-097-098-180400-
SOUTHWEST MINNESOTA

CITY           SKY/WX    TMP DP  RH WIND       PRES   REMARKS
FAIRMONT       PTCLDY    61  48  63 CALM      29.99S
JACKSON        PTCLDY    55  52  88 CALM      30.00R
LUVERNE        PTCLDY    63  55  77 NE3       29.99R
MARSHALL       PTCLDY    59  52  77 CALM      29.98R
MONTEVIDEO     CLEAR     61  54  77 SE5       29.99S
PIPESTONE      PTCLDY    61  54  77 CALM      30.00S
REDWOOD FALLS  PTCLDY    63  54  72 E3        29.98R
TRACY          MOCLDY    61  54  78 CALM      29.99S
WINDOM         MOCLDY    61  54  77 NE3       30.00R
WORTHINGTON    CLEAR     59  55  88 CALM      30.00S
$$

IAZ001>003-012>014-020>022-031-032-NEZ013-014-SDZ071-180400-
NORTHWEST IOWA

CITY           SKY/WX    TMP DP  RH WIND       PRES   REMARKS
CHEROKEE       CLEAR     60  55  84 CALM      29.97S
DENISON        PTCLDY    61  59  94 E6        29.96R
ESTHERVILLE    MOCLDY    58  55  90 E3        29.98R
LE MARS        CLOUDY    66  57  72 SE6       29.96S
ORANGE CITY    CLEAR     64  54  68 CALM      29.97S
SHELDON        CLOUDY    61  57  88 CALM      29.97R
SIOUX CITY     CLEAR     66  59  78 E7        29.96R
SPENCER        PTCLDY    57  53  86 E3        29.98R
STORM LAKE     CLEAR     59  55  88 SE7       29.98S
$$

ABBREVIATIONS USED IN REMARKS
   TC - TEMPERATURE IN CELSIUS
  WCI - WIND CHILL INDEX
   HX - HEAT INDEX
  VSB - VISIBILITY



USA.gov is the U.S. government's official web portal to all federal, state and local government web resources and services.